Time,TemperatureF,DewpointF,PressureIn,WindDirection,WindDirectionDegrees,WindSpeedMPH,WindSpeedGustMPH,Humidity,HourlyPrecipIn,Conditions,Clouds,dailyrainin,SoftwareType,DateUTC
2013-03-16 00:02:00,53.0,50.0,29.83,NW,322,0.0,2.0,89,0.00,,,-99.99,,2013-03-16 07:02:00,
2013-03-16 00:12:00,53.0,50.0,29.83,NW,322,0.0,2.0,89,0.00,,,-99.99,,2013-03-16 07:12:00,
2013-03-16 00:21:00,53.0,50.0,29.83,NW,321,0.0,2.0,89,0.00,,,-99.99,,2013-03-16 07:21:00,
2013-03-16 00:32:00,53.0,50.0,29.83,NW,321,0.0,2.0,89,0.00,,,-99.99,,2013-03-16 07:32:00,
2013-03-16 00:42:00,53.0,50.0,29.83,NW,321,0.0,2.0,89,0.00,,,-99.99,,2013-03-16 07:42:00,
2013-03-16 00:52:00,53.0,50.0,29.83,NW,318,0.0,0.0,89,0.00,,,-99.99,,2013-03-16 07:52:00,
2013-03-16 01:02:00,53.0,50.0,29.83,NW,318,0.0,0.0,89,0.00,,,-99.99,,2013-03-16 08:02:00,
2013-03-16 01:12:00,53.0,50.0,29.83,NW,318,0.0,0.0,89,0.00,,,-99.99,,2013-03-16 08:12:00,
2013-03-16 01:22:00,53.0,50.0,29.84,NW,318,0.0,0.0,90,0.00,,,-99.99,,2013-03-16 08:22:00,
2013-03-16 01:32:00,53.0,50.0,29.84,NW,318,0.0,0.0,90,0.00,,,-99.99,,2013-03-16 08:32:00,
2013-03-16 01:42:00,53.0,50.0,29.84,NW,318,0.0,0.0,90,0.00,,,-99.99,,2013-03-16 08:42:00,
2013-03-16 01:52:00,52.0,49.0,29.84,NW,319,1.0,3.0,90,0.00,,,-99.99,,2013-03-16 08:52:00,
2013-03-16 02:01:00,52.0,49.0,29.84,NW,319,1.0,3.0,90,0.00,,,-99.99,,2013-03-16 09:01:00,
2013-03-16 02:11:00,52.0,49.0,29.84,NW,319,1.0,3.0,90,0.00,,,-99.99,,2013-03-16 09:11:00,
2013-03-16 02:21:00,52.0,49.0,29.84,NW,319,1.0,3.0,90,0.00,,,-99.99,,2013-03-16 09:21:00,
2013-03-16 02:53:00,52.0,49.0,29.84,NW,308,1.0,4.0,91,0.00,,,-99.99,,2013-03-16 09:53:00,
2013-03-16 03:03:00,52.0,49.0,29.84,NW,308,1.0,4.0,91,0.00,,,-99.99,,2013-03-16 10:03:00,
2013-03-16 03:12:00,52.0,49.0,29.84,NW,308,1.0,4.0,91,0.00,,,-99.99,,2013-03-16 10:12:00,
2013-03-16 03:22:00,52.0,50.0,29.83,NNE,22,1.0,5.0,92,0.00,,,-99.99,,2013-03-16 10:22:00,
2013-03-16 03:32:00,52.0,50.0,29.83,NNE,22,1.0,5.0,92,0.00,,,-99.99,,2013-03-16 10:32:00,
2013-03-16 03:42:00,52.0,50.0,29.83,NNE,22,1.0,5.0,92,0.00,,,-99.99,,2013-03-16 10:42:00,
2013-03-16 03:52:00,52.0,50.0,29.82,NNE,28,1.0,4.0,92,0.00,,,-99.99,,2013-03-16 10:52:00,
2013-03-16 04:03:00,52.0,50.0,29.82,NNE,28,1.0,4.0,92,0.00,,,-99.99,,2013-03-16 11:03:00,
2013-03-16 04:12:00,52.0,50.0,29.82,NNE,28,1.0,4.0,92,0.00,,,-99.99,,2013-03-16 11:12:00,
2013-03-16 04:21:00,52.0,50.0,29.81,NNE,28,0.0,1.0,92,0.00,,,-99.99,,2013-03-16 11:21:00,
2013-03-16 04:32:00,52.0,50.0,29.81,NNE,28,0.0,1.0,92,0.00,,,-99.99,,2013-03-16 11:32:00,
2013-03-16 04:42:00,52.0,50.0,29.81,NNE,28,0.0,1.0,92,0.00,,,-99.99,,2013-03-16 11:42:00,
2013-03-16 04:51:00,52.0,50.0,29.81,WNW,288,2.0,5.0,92,0.00,,,-99.99,,2013-03-16 11:51:00,
2013-03-16 05:02:00,52.0,50.0,29.81,WNW,288,2.0,5.0,92,0.00,,,-99.99,,2013-03-16 12:02:00,
2013-03-16 05:12:00,52.0,50.0,29.81,WNW,288,2.0,5.0,92,0.00,,,-99.99,,2013-03-16 12:12:00,
2013-03-16 05:21:00,51.0,49.0,29.81,WNW,284,2.0,5.0,92,0.00,,,-99.99,,2013-03-16 12:21:00,
2013-03-16 05:32:00,51.0,49.0,29.81,WNW,284,2.0,5.0,92,0.00,,,-99.99,,2013-03-16 12:32:00,
2013-03-16 05:42:00,51.0,49.0,29.81,WNW,284,2.0,5.0,92,0.00,,,-99.99,,2013-03-16 12:42:00,
2013-03-16 05:52:00,52.0,50.0,29.82,WNW,284,0.0,0.0,92,0.00,,,-99.99,,2013-03-16 12:52:00,
2013-03-16 06:02:00,52.0,50.0,29.82,WNW,284,0.0,0.0,92,0.00,,,-99.99,,2013-03-16 13:02:00,
2013-03-16 06:12:00,52.0,50.0,29.82,WNW,284,0.0,0.0,92,0.00,,,-99.99,,2013-03-16 13:12:00,
2013-03-16 06:22:00,52.0,50.0,29.81,WNW,284,0.0,0.0,92,0.00,,,-99.99,,2013-03-16 13:22:00,
2013-03-16 06:32:00,52.0,50.0,29.81,WNW,284,0.0,0.0,92,0.00,,,-99.99,,2013-03-16 13:32:00,
2013-03-16 06:42:00,52.0,50.0,29.81,WNW,284,0.0,0.0,92,0.00,,,-99.99,,2013-03-16 13:42:00,
2013-03-16 07:22:00,51.0,49.0,29.82,ENE,59,0.0,2.0,92,0.00,,,-99.99,,2013-03-16 14:22:00,
2013-03-16 07:32:00,51.0,49.0,29.82,ENE,59,0.0,2.0,92,0.00,,,-99.99,,2013-03-16 14:32:00,
2013-03-16 07:42:00,51.0,49.0,29.82,ENE,59,0.0,2.0,92,0.00,,,-99.99,,2013-03-16 14:42:00,
2013-03-16 07:51:00,51.0,49.0,29.82,ENE,59,0.0,2.0,92,0.00,,,-99.99,,2013-03-16 14:51:00,
2013-03-16 08:22:00,51.0,49.0,29.83,North,350,0.0,2.0,92,0.00,,,-99.99,,2013-03-16 15:22:00,
2013-03-16 08:33:00,51.0,49.0,29.83,North,350,0.0,2.0,92,0.00,,,-99.99,,2013-03-16 15:33:00,
2013-03-16 08:42:00,51.0,49.0,29.83,North,350,0.0,2.0,92,0.00,,,-99.99,,2013-03-16 15:42:00,
2013-03-16 08:52:00,51.0,49.0,29.84,North,350,0.0,0.0,92,0.00,,,-99.99,,2013-03-16 15:52:00,
2013-03-16 09:02:00,51.0,49.0,29.84,North,350,0.0,0.0,92,0.00,,,-99.99,,2013-03-16 16:02:00,
2013-03-16 09:12:00,51.0,49.0,29.84,North,350,0.0,0.0,92,0.00,,,-99.99,,2013-03-16 16:12:00,
2013-03-16 09:22:00,52.0,50.0,29.84,North,350,0.0,1.0,93,0.00,,,-99.99,,2013-03-16 16:22:00,
2013-03-16 09:33:00,52.0,50.0,29.84,North,350,0.0,1.0,93,0.00,,,-99.99,,2013-03-16 16:33:00,
2013-03-16 09:42:00,52.0,50.0,29.84,North,350,0.0,1.0,93,0.00,,,-99.99,,2013-03-16 16:42:00,
2013-03-16 09:52:00,52.0,50.0,29.86,NW,304,0.0,1.0,92,0.00,,,-99.99,,2013-03-16 16:52:00,
2013-03-16 10:02:00,52.0,50.0,29.86,NW,304,0.0,1.0,92,0.00,,,-99.99,,2013-03-16 17:02:00,
2013-03-16 10:12:00,52.0,50.0,29.86,NW,304,0.0,1.0,92,0.00,,,-99.99,,2013-03-16 17:12:00,
2013-03-16 10:22:00,52.0,50.0,29.86,WNW,302,0.0,2.0,92,0.00,,,-99.99,,2013-03-16 17:22:00,
2013-03-16 10:32:00,52.0,50.0,29.86,WNW,302,0.0,2.0,92,0.00,,,-99.99,,2013-03-16 17:32:00,
2013-03-16 10:42:00,52.0,50.0,29.86,WNW,302,0.0,2.0,92,0.00,,,-99.99,,2013-03-16 17:42:00,
2013-03-16 11:53:00,53.0,50.0,29.85,WNW,292,1.0,4.0,91,0.00,,,-99.99,,2013-03-16 18:53:00,
2013-03-16 12:02:00,53.0,50.0,29.85,WNW,292,1.0,4.0,91,0.00,,,-99.99,,2013-03-16 19:02:00,
2013-03-16 12:12:00,53.0,50.0,29.85,WNW,292,1.0,4.0,91,0.00,,,-99.99,,2013-03-16 19:12:00,
2013-03-16 12:21:00,53.0,50.0,29.85,WNW,292,1.0,4.0,91,0.00,,,-99.99,,2013-03-16 19:21:00,
2013-03-16 12:52:00,55.0,52.0,29.86,West,275,0.0,5.0,88,0.00,,,-99.99,,2013-03-16 19:52:00,
2013-03-16 13:02:00,55.0,52.0,29.86,West,275,0.0,5.0,88,0.00,,,-99.99,,2013-03-16 20:02:00,
2013-03-16 13:12:00,55.0,52.0,29.86,West,275,0.0,5.0,88,0.00,,,-99.99,,2013-03-16 20:12:00,
2013-03-16 13:21:00,56.0,52.0,29.84,WNW,284,1.0,4.0,85,0.00,,,-99.99,,2013-03-16 20:21:00,
2013-03-16 13:32:00,56.0,52.0,29.84,WNW,284,1.0,4.0,85,0.00,,,-99.99,,2013-03-16 20:32:00,
2013-03-16 13:42:00,56.0,52.0,29.84,WNW,284,1.0,4.0,85,0.00,,,-99.99,,2013-03-16 20:42:00,
2013-03-16 13:51:00,57.0,51.0,29.83,WNW,290,1.0,6.0,81,0.00,,,-99.99,,2013-03-16 20:51:00,
2013-03-16 13:52:00,58.0,51.0,29.83,West,277,2.0,8.0,77,0.00,,,-99.99,,2013-03-16 20:52:00,
2013-03-16 14:02:00,57.0,51.0,29.83,WNW,290,1.0,6.0,81,0.00,,,-99.99,,2013-03-16 21:02:00,
2013-03-16 14:12:00,57.0,51.0,29.83,WNW,290,1.0,6.0,81,0.00,,,-99.99,,2013-03-16 21:12:00,
2013-03-16 14:22:00,58.0,51.0,29.83,West,277,2.0,8.0,77,0.00,,,-99.99,,2013-03-16 21:22:00,
2013-03-16 14:32:00,58.0,51.0,29.83,West,277,2.0,8.0,77,0.00,,,-99.99,,2013-03-16 21:32:00,
2013-03-16 14:43:00,58.0,51.0,29.83,West,277,2.0,8.0,77,0.00,,,-99.99,,2013-03-16 21:43:00,
2013-03-16 15:52:00,61.0,52.0,29.79,SSW,212,1.0,10.0,72,0.00,,,-99.99,,2013-03-16 22:52:00,
2013-03-16 16:02:00,61.0,52.0,29.79,SSW,212,1.0,10.0,72,0.00,,,-99.99,,2013-03-16 23:02:00,
2013-03-16 16:12:00,61.0,52.0,29.79,SSW,212,1.0,10.0,72,0.00,,,-99.99,,2013-03-16 23:12:00,
2013-03-16 16:22:00,62.0,51.0,29.80,SSE,159,1.0,4.0,68,0.00,,,-99.99,,2013-03-16 23:22:00,
2013-03-16 16:32:00,62.0,51.0,29.80,SSE,159,1.0,4.0,68,0.00,,,-99.99,,2013-03-16 23:32:00,
2013-03-16 16:42:00,62.0,51.0,29.80,SSE,159,1.0,4.0,68,0.00,,,-99.99,,2013-03-16 23:42:00,
2013-03-16 16:52:00,62.0,50.0,29.79,South,190,1.0,4.0,65,0.00,,,-99.99,,2013-03-16 23:52:00,
2013-03-16 17:01:00,62.0,50.0,29.79,South,190,1.0,4.0,65,0.00,,,-99.99,,2013-03-17 00:01:00,
2013-03-16 17:12:00,62.0,50.0,29.79,South,190,1.0,4.0,65,0.00,,,-99.99,,2013-03-17 00:12:00,
2013-03-16 17:22:00,63.0,51.0,29.78,WNW,296,1.0,8.0,65,0.00,,,-99.99,,2013-03-17 00:22:00,
2013-03-16 17:32:00,63.0,51.0,29.78,WNW,296,1.0,8.0,65,0.00,,,-99.99,,2013-03-17 00:32:00,
2013-03-16 17:42:00,63.0,51.0,29.78,WNW,296,1.0,8.0,65,0.00,,,-99.99,,2013-03-17 00:42:00,
2013-03-16 17:51:00,60.0,50.0,29.77,West,270,0.0,2.0,69,0.00,,,-99.99,,2013-03-17 00:51:00,
2013-03-16 18:02:00,60.0,50.0,29.77,West,270,0.0,2.0,69,0.00,,,-99.99,,2013-03-17 01:02:00,
2013-03-16 18:12:00,60.0,50.0,29.77,West,270,0.0,2.0,69,0.00,,,-99.99,,2013-03-17 01:12:00,
2013-03-16 18:21:00,60.0,50.0,29.77,West,270,0.0,2.0,69,0.00,,,-99.99,,2013-03-17 01:21:00,
2013-03-16 18:52:00,58.0,50.0,29.77,West,272,0.0,4.0,75,0.00,,,-99.99,,2013-03-17 01:52:00,
2013-03-16 18:53:00,59.0,50.0,29.76,SSW,211,0.0,1.0,72,0.00,,,-99.99,,2013-03-17 01:53:00,
2013-03-16 19:02:00,59.0,50.0,29.76,SSW,211,0.0,1.0,72,0.00,,,-99.99,,2013-03-17 02:02:00,
2013-03-16 19:12:00,59.0,50.0,29.76,SSW,211,0.0,1.0,72,0.00,,,-99.99,,2013-03-17 02:12:00,
2013-03-16 19:21:00,58.0,50.0,29.77,West,272,0.0,4.0,75,0.00,,,-99.99,,2013-03-17 02:21:00,
2013-03-16 19:33:00,58.0,50.0,29.77,West,272,0.0,4.0,75,0.00,,,-99.99,,2013-03-17 02:33:00,
2013-03-16 19:42:00,58.0,50.0,29.77,West,272,0.0,4.0,75,0.00,,,-99.99,,2013-03-17 02:42:00,
2013-03-16 19:52:00,55.0,49.0,29.77,West,272,0.0,2.0,81,0.00,,,-99.99,,2013-03-17 02:52:00,
2013-03-16 20:22:00,55.0,49.0,29.77,West,272,0.0,2.0,81,0.00,,,-99.99,,2013-03-17 03:22:00,
2013-03-16 20:33:00,55.0,49.0,29.77,West,272,0.0,2.0,81,0.00,,,-99.99,,2013-03-17 03:33:00,
2013-03-16 20:42:00,55.0,49.0,29.77,West,272,0.0,2.0,81,0.00,,,-99.99,,2013-03-17 03:42:00,
2013-03-16 20:52:00,53.0,49.0,29.80,West,272,0.0,0.0,85,0.00,,,-99.99,,2013-03-17 03:52:00,
2013-03-16 21:23:00,53.0,49.0,29.80,West,272,0.0,0.0,85,0.00,,,-99.99,,2013-03-17 04:23:00,
2013-03-16 21:32:00,53.0,49.0,29.80,West,272,0.0,0.0,85,0.00,,,-99.99,,2013-03-17 04:32:00,
2013-03-16 21:42:00,53.0,49.0,29.80,West,272,0.0,0.0,85,0.00,,,-99.99,,2013-03-17 04:42:00,
2013-03-16 22:22:00,52.0,48.0,29.81,North,10,0.0,2.0,86,0.00,,,-99.99,,2013-03-17 05:22:00,
2013-03-16 22:32:00,52.0,48.0,29.81,North,10,0.0,2.0,86,0.00,,,-99.99,,2013-03-17 05:32:00,
2013-03-16 22:42:00,52.0,48.0,29.81,North,10,0.0,2.0,86,0.00,,,-99.99,,2013-03-17 05:42:00,
2013-03-16 22:51:00,52.0,48.0,29.82,North,10,0.0,0.0,86,0.00,,,-99.99,,2013-03-17 05:51:00,
2013-03-16 23:02:00,52.0,48.0,29.82,North,10,0.0,0.0,86,0.00,,,-99.99,,2013-03-17 06:02:00,
2013-03-16 23:12:00,52.0,48.0,29.82,North,10,0.0,0.0,86,0.00,,,-99.99,,2013-03-17 06:12:00,
2013-03-16 23:21:00,51.0,47.0,29.83,North,10,0.0,0.0,86,0.00,,,-99.99,,2013-03-17 06:21:00,
2013-03-16 23:32:00,51.0,47.0,29.83,North,10,0.0,0.0,86,0.00,,,-99.99,,2013-03-17 06:32:00,
2013-03-16 23:42:00,51.0,47.0,29.83,North,10,0.0,0.0,86,0.00,,,-99.99,,2013-03-17 06:42:00,
2013-03-16 23:52:00,50.0,46.0,29.82,North,10,0.0,0.0,87,0.00,,,-99.99,,2013-03-17 06:52:00,